Volver al catálogo

ONEWEB-0419

ActivoComunicacionesPO
NORAD 50494·PAYLOAD·🇬🇧 United Kingdom

Lanzado Dec 27, 2021 desde Baikonur Cosmodrome

Loading…

Próximos Pases (próximas 24 horas)

TLE

ActualizadoSource: CelesTrak SupGP

Época: Sep 14, 2026, 18:32 UTC

1 50494C 21132AB  26257.77236526 -.00002463  00000+0 -64034-2 0  2573
2 50494  87.9174 317.6674 0001772 105.0402 345.0793 13.17090995    19

Sigue ONEWEB-0419 en tiempo real con AllMySat

Download on the App Store